Theta_e
345 345 347 346 346 348 349 350 350 350 350 349 349 349 349 350 350 350 351 351 350 351 350 350 350 350 349 349 348 348 348 347 347 347 347 346 345 345 343 342 342 342 341 341 341 341 343 343 343 344 344 344 345 345 347 347 346 346 346 346 345 344 344 343 342 341 342 342 343 344 344 344 344 344 344 342 342 342 341 340 340 337 339 343 347
345 346 347 350 346 348 349 349 350 350 350 350 350 350 350 349 351 351 351 351 350 350 350 350 350 349 349 348 348 347 347 347 347 347 347 345 344 343 342 341 341 341 341 340 340 339 341 342 343 343 344 344 344 345 345 346 345 345 344 345 345 343 343 342 341 340 341 341 340 340 340 342 342 343 342 342 342 341 339 340 339 337 338 342 343
346 347 348 349 347 348 349 349 350 350 350 350 349 349 350 350 351 350 350 350 350 350 350 350 349 349 349 349 348 347 347 346 347 347 347 345 344 342 341 340 340 340 340 340 340 339 339 341 341 343 343 343 344 344 345 344 344 344 344 343 343 343 342 341 339 340 339 338 338 338 339 339 340 341 341 341 341 341 338 338 339 338 338 341 341
345 346 348 348 344 347 349 350 350 350 350 349 349 349 350 350 350 350 350 350 350 350 350 349 349 349 350 349 348 347 346 346 347 347 346 345 344 342 339 339 340 339 339 340 340 339 339 340 341 341 341 343 343 344 344 343 343 343 343 342 342 342 341 340 339 339 338 337 339 337 337 337 337 339 340 340 340 340 338 338 337 338 339 339 339
346 347 348 350 351 348 348 351 350 350 349 349 349 349 350 350 350 349 350 349 350 350 349 349 348 349 349 348 347 347 346 346 347 347 346 345 344 341 339 339 339 339 338 339 339 339 338 339 341 342 342 343 343 343 343 343 343 342 342 342 341 342 340 339 340 340 339 338 337 335 334 334 335 336 339 340 339 337 338 337 337 338 337 337 338
346 348 349 349 350 351 348 351 350 349 349 349 349 349 349 349 349 349 349 349 349 349 349 349 348 348 348 347 347 346 346 346 346 346 346 345 343 339 338 339 339 338 338 338 338 338 338 338 341 344 344 343 343 343 343 343 342 342 342 341 341 341 341 340 340 338 337 337 336 334 333 333 333 334 338 338 339 336 336 337 337 337 337 337 337
345 348 350 348 350 349 346 350 350 350 349 349 349 349 349 349 349 349 349 349 349 348 348 349 349 348 347 347 346 346 346 345 345 345 345 344 341 338 338 339 338 338 338 338 338 338 339 339 339 339 342 342 341 341 341 341 341 340 340 340 340 340 339 338 338 337 336 334 333 334 334 334 333 334 338 338 338 337 336 336 337 336 337 337 337
347 349 350 349 351 346 344 350 350 349 349 349 349 349 349 349 349 349 348 348 347 347 348 348 348 347 347 346 346 346 345 345 345 344 343 343 340 337 338 338 338 337 338 337 338 339 340 340 341 341 341 341 341 342 341 341 341 341 340 340 339 338 338 337 336 336 335 333 334 333 333 333 334 333 336 337 338 336 336 336 335 337 336 335 334
346 348 349 350 350 342 344 347 350 349 349 349 349 349 349 349 349 348 348 347 347 346 347 347 347 347 347 346 346 345 345 345 345 343 342 342 338 337 338 338 338 337 337 337 338 338 340 341 342 342 342 342 341 341 340 340 340 340 339 339 338 337 336 335 335 333 331 332 332 332 332 333 333 333 336 336 336 336 336 334 334 335 334 334 334
346 348 349 349 350 340 344 345 350 349 349 349 349 348 349 349 348 348 347 346 346 346 346 345 346 346 346 346 345 345 345 345 344 342 341 341 337 336 338 338 337 338 337 337 337 337 337 337 338 340 340 340 340 340 340 339 339 339 339 338 337 336 335 334 334 332 331 331 332 332 333 334 333 333 335 337 335 335 334 334 334 334 333 333 333
347 348 349 350 351 339 344 346 349 349 349 349 348 348 348 348 348 348 347 347 346 346 345 346 346 346 346 346 345 345 345 344 343 341 341 340 337 337 338 339 337 337 337 337 337 337 336 337 336 337 339 339 338 337 337 337 338 338 337 336 335 334 334 334 331 331 333 332 331 331 332 334 332 333 335 336 335 334 335 334 333 333 333 333 334
346 347 350 351 344 338 341 343 345 349 349 349 348 348 347 348 347 347 347 346 346 346 346 345 345 346 345 346 346 345 344 344 342 340 340 339 336 337 339 338 337 337 336 336 336 336 336 337 336 336 336 335 334 334 335 336 337 336 335 334 333 331 330 333 331 331 332 332 332 331 331 330 331 333 337 337 336 335 334 334 334 333 333 334 333
346 347 348 350 348 338 340 341 341 347 349 349 348 348 347 347 347 347 347 347 347 347 346 346 345 345 345 345 345 344 343 343 342 340 340 338 335 335 337 338 338 337 336 336 336 335 336 335 336 334 332 331 331 332 334 335 335 333 332 331 330 329 329 330 331 331 332 333 332 332 332 335 335 338 339 339 338 336 335 335 336 335 335 335 334
345 346 347 347 345 340 336 337 339 342 346 348 347 348 348 347 346 347 347 347 347 346 346 346 345 344 344 345 345 344 343 342 341 341 340 337 334 334 336 336 336 337 336 336 335 335 335 335 333 330 328 327 328 330 332 332 331 330 328 328 328 327 328 329 330 331 331 332 332 331 331 332 334 336 338 339 339 338 337 337 337 337 337 337 337
344 347 346 345 342 343 336 335 337 339 343 345 347 347 348 347 347 346 346 346 346 346 346 345 345 344 344 344 345 344 343 342 341 341 339 338 335 334 335 333 333 334 335 336 335 334 333 332 329 325 323 325 327 329 330 329 329 328 327 326 325 326 326 329 329 329 330 330 330 330 331 332 334 335 336 338 339 339 338 338 337 337 337 337 337
346 345 345 343 339 341 342 338 334 336 340 341 343 345 347 347 348 347 345 346 346 346 346 346 345 344 344 344 344 344 342 341 341 340 339 337 336 336 335 334 333 332 334 334 334 332 330 328 326 324 323 325 328 328 328 328 327 326 325 325 324 325 324 326 329 328 327 328 329 330 329 330 332 333 334 335 336 337 337 337 336 337 336 336 336
341 344 344 341 341 342 343 343 339 330 332 334 336 337 341 346 347 347 346 346 346 346 345 345 345 345 345 344 344 343 342 341 340 340 338 337 337 336 335 335 333 332 332 332 331 330 328 327 325 324 324 325 327 327 327 326 326 325 324 324 324 324 323 322 326 327 326 327 328 327 327 328 330 331 332 333 334 335 335 336 335 334 334 335 336
335 337 341 341 338 340 342 345 344 344 348 336 330 333 339 343 344 344 344 345 345 345 346 345 345 345 344 343 342 342 342 341 341 339 337 336 336 335 334 334 332 331 330 329 328 328 327 326 325 325 325 325 325 326 325 325 325 324 323 323 324 324 324 323 328 327 326 327 326 327 327 329 329 330 330 332 332 332 333 334 334 334 333 333 334
332 330 335 339 338 337 338 341 344 344 345 345 347 341 331 337 339 341 342 342 343 343 343 342 342 343 341 339 338 337 336 336 337 338 337 335 333 332 333 332 331 329 329 328 328 328 326 325 325 325 324 325 325 325 324 324 323 323 322 322 321 321 321 324 326 326 326 326 325 326 327 331 331 331 332 331 330 330 329 329 331 330 332 331 331
331 335 333 331 333 337 338 338 339 341 344 344 344 347 334 330 334 337 338 339 340 340 339 337 335 335 334 332 331 335 332 336 328 335 332 335 332 331 332 332 330 328 328 329 329 328 327 326 326 325 324 324 324 324 323 323 322 321 321 321 320 320 325 327 328 328 329 328 327 330 330 332 333 334 334 333 332 332 331 331 330 330 330 329 329
328 332 332 329 329 336 337 339 335 334 340 343 344 345 345 329 330 330 332 335 336 336 335 328 325 324 327 325 329 341 342 341 340 339 327 336 325 326 331 332 330 327 326 327 327 326 325 325 325 323 322 321 319 319 319 320 320 319 319 318 317 322 323 324 325 326 327 328 329 330 330 330 331 334 334 334 333 333 332 331 331 330 331 331 330
330 329 327 326 327 330 331 334 336 334 338 341 342 343 344 338 346 344 343 337 331 327 335 341 333 339 324 335 341 340 342 342 341 335 337 334 332 325 329 331 330 328 326 326 326 325 325 324 323 322 321 319 318 319 317 315 316 317 316 315 320 320 321 322 323 323 323 323 325 328 330 330 330 333 333 333 333 332 332 331 331 331 331 331 330
328 329 326 324 325 326 327 331 331 332 336 342 342 342 342 342 344 345 342 333 336 340 343 339 342 341 342 343 340 341 341 342 340 337 337 327 332 325 329 329 330 327 327 326 326 326 325 324 322 320 319 318 319 320 320 319 317 313 313 317 317 318 319 320 320 320 320 320 322 325 328 330 330 331 332 332 332 331 330 330 331 330 330 331 331
329 329 328 323 323 323 324 328 328 330 334 338 340 341 342 342 342 344 343 340 341 342 342 341 341 342 343 342 341 342 341 340 328 326 329 336 330 324 326 326 326 325 324 325 324 324 323 322 320 319 319 318 318 317 317 317 316 316 315 313 313 314 315 316 317 318 318 318 319 323 327 328 330 330 331 331 331 330 330 331 330 329 330 329 329
327 323 324 323 321 322 324 325 327 330 334 335 335 339 341 342 342 342 341 341 340 341 340 341 340 340 342 341 340 339 340 337 336 335 338 336 335 334 332 330 328 326 322 324 322 321 321 321 320 319 319 317 316 316 315 313 312 311 310 309 309 310 311 312 314 315 316 316 316 319 324 326 327 329 330 330 330 328 329 329 329 328 328 328 327
317 321 325 323 322 322 325 326 325 327 331 334 334 334 335 340 341 341 340 341 341 341 340 339 339 341 342 340 337 338 338 338 336 336 339 336 335 334 333 331 328 326 325 323 322 323 323 322 320 318 316 315 314 313 311 310 308 307 306 306 306 306 307 308 310 312 314 314 314 317 320 323 324 326 328 328 327 327 328 328 328 328 328 327 326
320 324 325 323 322 322 324 326 329 328 328 331 333 334 336 338 341 342 340 338 340 340 339 339 339 341 341 339 336 335 335 335 336 335 334 336 335 334 333 329 326 325 324 325 324 323 322 320 318 317 316 313 311 310 309 308 307 306 305 304 303 303 304 305 306 308 310 312 311 313 317 319 322 324 324 325 326 326 326 326 328 328 326 326 324
324 324 323 323 322 322 323 324 326 328 330 330 332 334 336 338 338 338 339 337 337 338 339 340 340 339 339 338 337 336 334 333 334 334 334 334 334 334 334 330 329 326 325 325 322 321 319 319 318 316 314 311 309 309 308 306 306 306 304 303 302 301 301 302 303 304 306 309 309 309 315 316 317 319 321 322 323 324 325 324 326 327 326 325 324
321 323 323 322 322 322 322 322 323 325 327 330 331 333 335 336 335 336 337 333 336 338 338 339 339 338 338 338 338 336 335 333 332 332 333 332 331 331 332 330 327 325 324 322 321 320 318 316 316 315 313 311 309 307 306 305 305 304 302 301 301 300 300 300 300 301 302 304 306 305 310 314 315 316 317 319 320 320 321 322 323 323 324 324 322
320 321 320 320 320 320 320 321 322 323 325 328 331 333 334 334 335 334 336 330 336 335 334 335 338 338 337 337 336 335 334 333 333 332 330 329 329 329 328 329 326 324 323 322 321 319 317 316 316 314 311 308 307 305 305 304 303 302 301 300 299 298 299 299 299 299 299 300 302 303 303 308 312 314 315 316 318 319 319 319 321 321 321 321 321
317 318 318 318 318 318 319 319 320 322 324 325 329 332 332 333 334 332 331 334 335 334 333 335 334 336 336 336 337 336 335 332 331 330 329 326 326 325 324 325 326 326 324 321 320 318 317 315 314 312 309 307 306 305 304 303 301 300 300 299 298 298 298 298 298 298 297 298 299 300 301 302 307 311 313 314 316 316 318 318 318 319 320 321 319
316 316 317 318 317 317 317 318 319 320 320 322 327 330 331 332 332 330 328 331 334 335 334 333 330 331 333 335 335 335 334 333 331 328 326 325 325 322 321 322 320 321 321 320 319 318 315 314 313 311 308 305 305 304 303 301 299 298 298 298 298 297 297 297 297 297 297 297 297 297 298 300 301 305 308 312 313 313 314 315 316 316 317 319 318
316 317 317 317 316 316 317 317 319 320 320 320 325 327 329 330 330 330 328 325 328 332 333 332 330 329 331 331 331 332 332 331 331 329 324 322 319 318 316 316 315 315 316 315 315 314 312 311 310 310 306 304 304 302 301 299 298 297 297 297 297 296 297 297 296 296 296 296 296 296 297 297 298 299 301 305 309 311 312 312 313 314 315 315 315
316 316 316 315 316 318 318 320 321 321 321 322 325 325 328 329 328 327 326 325 324 323 329 331 329 328 329 329 329 328 328 326 325 323 320 317 316 315 312 311 311 312 314 314 313 312 310 308 306 304 302 301 301 299 298 297 295 295 295 296 296 296 295 295 295 295 295 295 295 296 295 295 295 296 297 298 301 306 308 310 310 312 312 313 313
316 315 315 316 316 316 317 318 319 320 321 322 323 324 326 326 324 325 324 323 323 321 320 323 324 325 328 329 329 327 326 322 320 317 317 315 311 310 310 310 310 311 312 313 312 312 309 306 306 302 301 300 299 298 296 295 294 294 294 295 294 295 295 294 295 295 294 295 295 295 295 294 294 295 295 294 296 298 302 306 308 309 310 312 312
314 315 315 316 315 315 317 318 318 319 320 321 321 321 322 321 319 317 321 323 324 322 319 318 318 321 323 325 325 323 323 321 317 315 312 312 311 310 310 308 308 309 310 310 310 309 308 305 304 301 298 297 296 295 295 294 294 294 294 294 294 294 293 294 294 294 294 294 294 294 294 294 294 293 294 293 292 293 296 299 302 304 306 308 310
314 315 314 315 315 315 316 318 318 318 318 315 314 315 318 317 314 314 316 318 320 320 317 314 315 317 317 317 317 317 319 317 314 313 311 308 309 307 308 309 310 309 310 309 308 306 305 303 301 300 300 297 295 294 294 294 293 293 293 294 294 294 293 293 293 293 294 293 293 293 293 293 293 294 293 293 292 291 292 294 296 298 300 303 306
314 314 314 314 314 315 316 317 318 318 317 313 311 312 314 314 313 313 312 313 312 313 313 313 312 312 313 312 313 312 312 313 313 312 309 307 305 304 304 306 307 308 308 307 305 304 304 302 300 299 298 297 295 294 293 293 293 293 292 292 292 292 292 292 293 292 292 292 292 292 292 292 293 292 292 293 293 292 292 292 292 293 294 298 302
313 313 313 314 314 315 315 315 314 313 314 311 308 308 309 309 310 311 310 308 307 307 308 309 309 309 310 310 311 310 310 309 308 308 305 304 303 302 303 304 305 306 306 305 303 303 302 301 300 298 298 298 296 294 293 293 292 292 291 290 291 291 292 292 292 292 292 292 291 292 293 292 292 292 292 292 292 292 292 291 291 291 290 293 296
312 312 312 313 313 314 314 312 312 312 311 309 307 307 307 307 306 306 307 306 306 304 304 304 305 306 307 308 308 309 308 307 307 306 304 302 303 303 303 303 304 305 304 303 303 302 301 300 299 298 296 295 295 294 293 292 291 291 290 290 291 291 291 291 291 291 292 292 291 291 291 292 291 291 291 292 292 291 291 291 290 290 290 290 292
311 311 312 312 312 312 312 311 310 309 309 307 306 306 306 307 308 309 309 307 305 303 302 302 302 304 305 307 307 307 306 305 305 304 303 302 303 303 303 302 303 305 304 304 304 303 301 300 298 297 295 294 293 294 293 292 290 288 289 289 289 290 290 290 290 291 291 291 291 290 291 291 291 291 291 291 291 291 290 290 290 289 289 290 289
310 311 311 311 311 312 311 312 308 308 309 310 308 308 308 311 311 310 308 304 301 302 301 300 299 301 303 304 304 305 304 303 302 302 303 303 301 300 301 302 303 304 305 305 304 301 300 298 298 296 296 294 292 294 293 293 290 288 286 286 287 289 289 289 289 289 290 291 291 291 291 290 290 290 290 290 290 290 289 289 289 289 289 289 288
310 310 311 311 311 310 311 310 307 307 308 310 309 309 309 307 309 306 303 300 299 300 301 299 297 297 298 300 301 303 302 301 301 300 301 302 302 301 302 303 304 305 304 303 303 301 300 298 298 296 294 294 293 295 294 298 291 291 290 287 285 285 286 287 288 288 289 290 290 290 290 289 289 290 290 290 289 289 289 289 288 288 288 288 288
310 310 310 310 310 310 311 310 308 307 307 308 308 305 301 300 302 301 299 299 298 296 297 296 296 297 296 297 297 298 300 300 298 298 301 302 303 303 302 303 305 306 306 303 302 301 299 298 298 297 295 292 293 293 297 296 295 291 288 291 288 288 284 285 285 286 288 289 289 289 289 289 289 290 290 289 289 289 288 288 288 288 287 287 287
309 310 310 310 309 310 310 309 307 307 308 307 304 300 298 298 296 296 297 295 295 295 296 295 294 295 294 294 295 296 298 298 297 297 299 302 303 303 303 304 305 305 305 304 302 301 300 300 299 297 296 294 292 293 293 295 296 299 296 291 290 289 290 287 285 284 287 287 287 288 289 289 289 289 289 289 289 289 288 288 288 287 287 287 287
309 310 311 311 310 310 310 308 307 306 306 306 301 300 299 299 296 296 296 295 294 294 296 295 293 293 294 294 293 294 295 296 297 297 297 299 301 302 303 304 304 304 304 304 303 301 301 300 299 298 297 297 295 294 293 295 297 297 296 296 297 293 290 286 286 282 286 288 287 287 288 288 289 289 289 289 289 288 288 288 288 287 287 287 286
309 310 311 310 310 309 309 309 307 306 305 301 301 300 300 300 299 300 302 299 297 297 300 299 297 296 294 292 292 293 294 294 295 296 296 297 299 301 302 303 304 304 303 303 302 301 301 301 300 299 299 299 298 295 295 294 293 293 294 295 295 294 293 287 286 285 281 284 286 286 286 288 288 288 288 288 288 288 288 287 287 287 286 286 286
309 310 310 310 309 309 308 307 306 305 304 301 300 301 300 299 301 302 303 303 303 302 301 299 296 293 292 291 291 292 293 293 293 293 294 294 297 299 301 302 302 303 302 302 302 301 302 302 301 302 302 300 299 299 297 294 291 293 292 293 292 295 295 294 292 288 287 282 283 286 286 287 287 287 288 287 287 287 287 287 287 287 286 286 286
309 309 309 309 309 309 308 307 306 304 303 300 300 301 302 301 303 305 304 307 305 301 297 295 293 292 291 290 290 291 292 292 292 292 293 294 295 298 299 300 300 300 300 302 301 301 300 300 299 299 299 299 301 301 298 294 294 293 290 291 292 291 291 292 292 292 288 286 284 283 284 285 286 287 287 287 287 287 287 287 286 286 286 286 285
308 309 309 309 309 308 307 305 306 304 302 300 300 301 302 303 305 306 306 303 298 294 294 293 292 292 291 290 290 290 291 290 291 292 292 294 295 296 297 298 298 298 298 299 299 299 298 298 297 298 298 298 298 298 298 296 296 292 292 292 290 289 289 288 289 289 290 290 286 284 284 283 282 285 286 287 287 287 287 286 286 286 286 285 285
308 308 308 308 308 307 306 305 304 304 301 299 299 300 302 304 304 304 303 298 296 295 294 292 291 291 291 290 290 291 291 290 290 290 292 293 294 294 296 296 296 296 296 296 296 297 296 296 296 296 296 296 295 296 295 295 293 292 292 291 290 290 290 288 287 288 288 286 286 286 285 285 285 284 285 287 287 287 287 286 286 286 285 285 284
Wind_Speed
7 7 6 4 4 4 5 7 9 10 11 10 10 10 10 11 12 12 12 11 12 13 13 13 14 14 14 15 15 15 15 15 15 15 16 16 17 17 17 17 17 17 16 15 13 14 15 15 15 15 16 17 16 17 19 20 20 20 20 19 20 20 20 19 18 19 19 20 23 23 22 22 22 22 22 22 21 22 21 19 15 15 14 16 21
9 7 6 7 4 4 3 7 9 9 9 9 10 10 10 11 11 11 11 12 12 13 13 13 13 14 14 14 15 14 14 14 15 16 16 17 17 17 17 18 17 18 17 16 14 14 14 14 15 15 15 16 16 17 18 19 20 19 19 19 19 20 19 18 17 17 17 15 18 21 22 23 22 22 22 22 23 22 20 20 19 14 13 19 20
5 7 6 7 1 2 3 7 9 9 9 10 10 10 10 10 11 12 12 12 13 13 13 13 13 13 14 14 14 14 13 14 15 16 16 17 17 17 17 18 17 17 18 17 15 14 15 14 15 15 16 16 17 17 18 18 19 19 20 20 19 19 18 17 17 17 16 15 14 15 18 22 22 22 21 22 23 22 21 21 20 19 15 22 20
7 6 6 7 2 0 1 4 8 8 8 9 10 10 10 11 11 12 12 12 13 13 13 13 13 13 14 14 14 14 13 14 15 16 17 18 18 18 17 18 17 16 18 18 17 15 15 15 15 15 16 16 17 18 17 18 19 18 19 19 18 17 16 17 16 15 15 14 11 13 11 13 16 22 22 22 23 23 21 23 23 23 23 22 23
7 7 7 8 8 5 1 4 9 9 9 9 9 9 10 10 11 12 12 12 13 13 13 13 13 13 14 14 14 13 13 14 15 16 17 18 18 18 17 17 17 17 18 19 18 17 16 16 16 16 16 17 17 18 18 18 19 18 18 18 18 17 17 17 14 12 11 12 12 13 12 14 14 20 20 22 23 23 21 23 22 23 22 24 24
8 7 7 8 8 8 4 6 10 9 9 9 8 10 10 10 11 11 12 12 12 12 12 13 13 13 13 14 14 13 14 15 15 16 17 17 18 17 17 17 17 17 17 18 18 18 17 17 18 18 18 18 19 18 19 19 19 18 19 18 18 18 16 14 13 11 10 9 12 11 13 14 14 14 22 21 21 22 23 23 23 23 22 24 23
7 6 6 7 6 8 5 6 9 9 9 8 9 10 10 10 10 11 11 11 12 12 12 12 13 13 13 13 13 14 14 15 15 15 16 17 17 17 17 17 17 17 18 18 18 18 18 18 16 17 17 18 18 19 19 19 19 19 18 19 18 16 15 13 12 11 10 11 10 11 11 14 14 12 21 20 20 21 22 23 23 23 23 22 22
6 5 5 6 5 7 2 5 8 8 8 8 9 9 10 9 9 10 11 10 10 11 12 12 12 12 12 13 13 14 14 15 15 15 16 16 16 17 17 17 17 17 17 19 18 19 18 18 18 17 18 18 18 18 18 18 18 18 18 18 18 16 15 13 10 11 12 12 12 11 11 13 14 12 19 21 21 21 20 22 22 23 23 23 19
8 7 6 6 6 5 3 3 7 8 7 8 8 9 9 9 9 10 10 10 10 10 11 12 12 12 12 13 13 14 14 14 15 15 15 16 16 16 17 17 17 16 17 18 18 18 18 18 19 19 20 20 19 19 19 19 19 19 19 18 16 15 13 11 10 11 14 13 14 13 14 13 14 13 18 21 22 22 22 18 17 21 23 21 20
9 8 8 7 6 5 2 1 7 8 8 8 7 8 10 9 9 10 10 10 10 10 11 11 12 12 12 13 13 13 14 14 14 14 15 15 16 16 17 17 17 17 18 18 18 17 18 17 17 18 19 19 19 20 19 19 19 19 18 17 15 14 11 9 13 14 12 14 15 15 14 15 14 12 17 20 21 22 18 16 16 16 16 19 22
9 8 7 7 7 5 1 2 7 6 8 7 8 8 9 9 9 10 10 10 10 10 10 11 11 11 12 12 13 13 13 14 14 14 15 15 15 16 17 17 17 17 17 18 18 18 18 18 18 18 18 19 19 19 19 19 19 18 17 16 15 14 11 10 13 13 13 14 13 14 14 15 13 12 16 19 20 21 17 18 18 19 20 21 20
10 8 8 6 7 5 3 5 3 9 7 7 8 8 9 9 9 9 10 10 9 10 10 10 10 11 11 12 12 13 13 14 14 14 14 15 15 16 16 16 17 17 17 17 18 18 18 18 18 18 18 18 17 17 17 18 18 16 16 15 14 13 11 11 13 12 14 14 14 14 14 14 14 14 18 17 18 19 19 20 19 20 20 20 20
9 8 7 6 7 5 4 3 4 3 7 7 8 9 9 9 9 10 10 10 10 9 9 9 9 10 11 11 12 12 13 13 14 14 14 14 15 15 16 16 17 18 18 17 17 18 18 18 18 17 17 17 16 16 17 17 16 16 15 14 13 12 10 12 14 14 13 13 12 14 14 13 14 19 19 18 18 18 19 19 20 20 20 20 19
8 8 8 6 5 6 4 1 3 4 3 5 7 7 9 9 10 10 10 10 10 10 10 10 10 10 11 12 12 12 13 14 14 14 14 14 15 15 16 16 16 17 17 17 17 18 18 18 17 17 17 16 16 16 16 16 16 16 15 14 13 10 8 12 15 13 14 13 13 14 13 12 13 19 20 22 20 20 20 20 21 21 21 21 19
4 9 8 6 5 6 5 6 5 3 1 5 5 6 7 9 10 10 11 11 11 11 11 11 11 11 11 11 12 13 13 13 14 14 14 14 15 16 16 16 16 16 17 17 18 18 17 17 17 17 17 17 17 17 17 17 16 16 15 14 13 11 10 11 10 12 12 11 12 13 12 12 17 18 20 21 22 21 22 22 22 23 23 23 22
6 7 7 5 8 6 6 6 3 1 1 3 3 3 4 5 7 8 10 11 12 12 11 11 11 11 11 11 12 12 13 13 14 13 14 14 15 15 16 16 16 16 17 17 17 17 17 18 18 18 18 18 18 18 17 17 16 15 15 14 12 10 11 10 10 11 11 11 11 12 13 13 19 20 19 20 21 21 21 22 21 22 22 23 24
6 5 7 6 7 8 8 8 5 5 4 5 5 3 2 3 5 7 8 8 9 11 12 11 11 12 11 11 12 10 10 12 13 13 14 14 15 15 15 16 16 16 17 17 18 18 18 18 18 18 18 18 18 18 18 17 16 15 15 13 12 10 11 11 11 11 11 12 11 11 11 12 17 21 20 21 22 23 22 23 23 22 22 23 23
6 4 6 7 4 4 5 7 8 6 7 6 5 4 2 2 5 6 7 7 8 9 9 10 10 9 9 9 9 9 10 10 11 13 14 14 13 13 15 16 16 17 17 18 18 18 19 19 18 18 18 19 19 19 18 17 17 15 14 13 11 11 11 12 11 11 12 12 12 12 12 12 17 19 21 21 22 22 22 24 23 23 22 21 22
5 5 4 5 5 4 4 4 7 6 6 5 6 5 2 4 5 7 7 8 8 8 8 9 9 9 9 9 9 9 9 9 10 11 11 12 12 13 14 15 16 17 17 18 18 19 19 19 19 19 19 19 19 19 18 17 16 15 14 11 11 11 11 12 11 12 13 12 12 11 10 13 18 18 19 19 20 20 20 21 21 21 21 21 22
3 5 4 3 2 5 5 4 4 4 6 6 6 7 5 6 4 4 5 6 7 8 8 9 10 10 10 10 10 9 10 9 10 10 10 11 11 13 13 14 16 17 17 18 18 18 18 19 19 19 19 19 19 19 18 17 16 15 13 11 11 12 12 11 14 13 12 12 12 11 16 18 20 20 20 20 20 21 21 20 20 20 20 20 19
2 6 5 4 3 4 4 5 4 3 4 6 7 8 7 7 6 5 6 7 7 8 9 9 11 10 11 10 10 9 9 9 9 10 9 10 11 12 13 13 16 17 17 17 18 18 19 19 19 19 19 19 18 18 17 17 16 14 12 11 12 11 11 12 12 12 12 11 12 12 16 16 17 20 20 21 21 20 21 20 20 21 22 22 22
8 5 4 4 4 3 4 4 4 3 4 4 4 4 6 7 8 7 7 7 8 9 8 6 7 8 9 9 7 6 7 7 8 10 8 10 10 11 12 14 16 15 16 17 18 18 19 19 19 19 17 15 13 11 12 14 14 12 12 11 11 9 10 11 12 10 11 11 11 12 17 19 19 20 21 21 21 21 21 21 22 21 21 22 22
8 6 5 4 2 3 3 4 3 3 3 5 3 3 6 4 7 7 5 4 7 8 6 6 5 7 8 7 7 7 7 7 7 7 7 9 10 12 13 13 14 14 15 17 17 18 18 19 18 16 14 11 9 8 8 8 9 10 10 10 9 9 10 11 11 11 11 11 11 15 18 20 21 21 21 21 21 21 20 21 22 22 24 25 24
9 7 7 3 3 3 2 3 2 2 2 2 3 4 5 5 5 5 5 4 6 7 8 7 6 7 7 7 6 7 7 6 6 9 8 7 7 10 13 13 13 14 16 14 16 15 17 17 15 13 11 8 8 9 8 7 7 7 8 8 8 9 9 9 9 10 10 13 13 18 19 20 21 21 22 21 22 22 22 23 23 23 25 26 27
6 3 3 5 5 4 4 3 2 2 2 2 2 4 5 6 5 6 7 6 4 6 7 7 7 7 7 5 5 6 7 5 5 7 7 7 8 8 8 10 10 11 12 11 10 10 10 9 8 9 8 7 7 7 7 8 7 7 8 8 8 8 8 8 9 9 10 11 14 18 17 20 22 22 22 22 23 22 22 23 25 24 25 27 27
3 5 7 5 5 4 3 3 3 2 2 2 2 1 3 6 8 7 6 6 7 7 7 6 5 8 7 6 6 6 7 6 4 6 6 8 8 8 7 7 8 9 9 9 9 9 7 7 8 7 7 7 7 6 6 6 7 7 7 8 8 8 8 8 8 9 9 10 12 19 18 19 21 22 22 20 20 22 23 23 22 23 26 25 25
5 7 6 5 5 5 5 3 4 4 4 3 2 3 5 5 7 8 9 6 7 9 8 8 6 7 8 7 6 6 6 6 6 5 6 6 8 8 8 6 7 7 8 9 8 7 6 6 7 8 7 8 7 6 7 7 7 8 7 8 8 8 7 7 8 8 8 10 13 20 18 20 21 21 20 20 21 21 20 23 24 25 25 24 24
7 8 6 6 5 6 5 5 5 5 5 5 5 5 5 5 5 5 8 8 7 7 8 9 9 7 8 8 8 7 7 5 6 5 6 5 2 7 6 5 5 5 6 7 8 6 6 6 8 8 8 8 7 7 7 7 8 8 8 8 8 7 7 7 7 7 8 9 10 17 18 18 20 20 20 20 19 20 21 22 24 24 24 24 24
9 8 6 6 5 4 4 5 5 6 6 6 7 7 6 6 4 5 6 7 7 4 5 8 8 8 8 9 7 8 8 7 6 6 5 5 5 2 6 6 5 5 6 6 7 8 7 6 7 7 7 6 7 7 7 7 7 7 7 8 8 8 7 7 7 8 7 8 9 13 20 19 20 20 20 21 20 19 20 21 21 22 22 23 24
10 8 7 6 5 5 5 6 6 6 6 6 8 10 8 7 6 5 4 5 7 6 6 5 7 8 9 9 9 9 9 8 7 7 6 6 6 6 4 4 7 6 6 7 7 8 8 6 6 7 7 6 7 7 7 8 8 7 7 7 7 7 7 7 7 7 7 7 8 10 20 20 20 21 21 21 21 20 20 20 21 20 21 22 23
8 8 7 6 5 5 6 6 6 5 4 6 7 11 10 9 6 4 3 5 6 6 5 5 5 7 8 10 8 9 9 9 9 8 7 7 6 6 8 5 5 3 6 8 7 8 8 6 5 6 7 7 7 7 7 8 8 7 7 8 7 7 7 7 7 7 7 7 7 8 12 20 20 20 21 22 22 22 21 21 21 21 21 20 22
9 9 7 6 5 7 6 6 6 6 7 7 7 11 9 10 7 5 4 3 7 7 7 6 6 5 7 9 9 9 9 9 9 9 9 8 8 7 7 5 5 5 5 8 10 10 9 7 6 6 6 7 7 7 7 8 8 7 7 8 7 7 7 6 7 7 7 7 7 7 7 10 18 21 20 21 21 22 21 22 21 20 20 20 20
7 8 7 6 7 6 6 6 7 7 8 9 9 9 9 9 7 6 5 5 5 7 8 7 5 5 7 8 8 7 6 7 9 10 8 7 6 6 6 6 4 6 7 9 11 10 9 8 7 6 6 7 8 8 7 8 8 7 7 7 6 7 6 6 6 7 7 7 6 6 6 7 8 15 21 21 22 21 21 21 21 21 20 20 20
6 6 7 7 6 4 4 4 6 7 8 9 9 9 10 8 6 6 6 6 4 4 6 6 7 7 7 8 8 6 5 4 5 6 5 6 7 6 7 6 5 8 8 9 8 9 9 10 9 7 7 6 7 7 8 8 7 7 7 6 6 6 6 7 6 6 6 6 6 6 6 6 6 7 9 18 21 20 21 21 21 21 21 20 20
6 7 8 7 7 5 4 4 5 7 8 10 10 9 7 7 6 6 6 5 5 5 3 3 3 5 7 8 9 8 7 7 8 6 6 7 6 7 7 6 6 7 6 5 7 7 9 9 8 8 7 6 6 7 8 9 8 8 6 6 7 6 6 7 6 7 6 6 6 6 6 6 6 6 7 7 13 19 20 21 21 21 21 21 21
10 8 7 7 7 6 6 6 7 8 9 9 6 4 5 5 4 2 3 4 5 5 5 3 2 2 4 5 6 7 8 9 8 8 7 6 6 7 6 6 7 6 7 7 7 10 8 7 6 9 10 7 7 8 8 9 8 8 7 7 6 6 6 6 6 6 6 5 6 6 6 6 6 6 7 7 8 12 19 20 21 21 21 21 21
10 9 8 8 7 7 7 9 9 9 7 4 4 3 4 5 4 2 2 3 3 4 4 3 2 2 2 4 4 5 7 9 9 9 8 8 7 6 7 9 5 8 8 7 7 7 9 8 6 5 7 10 9 10 9 8 8 8 8 8 7 6 6 6 6 5 5 5 5 5 6 6 6 6 6 6 7 7 13 17 19 21 21 21 20
10 10 9 9 9 8 8 10 8 9 8 6 5 4 3 5 5 4 3 3 3 3 4 4 3 2 2 3 5 5 5 5 5 7 6 7 7 7 7 7 6 8 8 7 6 6 7 9 9 6 7 10 9 10 10 8 7 8 8 8 7 6 6 6 5 5 5 5 5 5 5 5 5 6 6 6 6 6 6 9 13 17 21 20 21
9 11 10 9 8 8 8 8 6 6 7 6 5 5 4 4 4 5 4 4 3 2 2 3 3 3 2 4 5 6 6 7 6 7 7 7 7 7 8 6 5 7 8 8 7 6 6 7 11 9 7 8 9 9 10 9 9 8 8 9 7 7 5 5 4 4 5 5 5 5 4 5 5 6 6 6 6 6 7 7 7 7 10 19 19
10 10 11 11 10 9 8 7 7 8 7 7 5 5 5 5 5 4 4 4 4 3 2 1 2 3 3 4 4 6 7 7 8 7 6 7 8 8 9 7 6 8 8 10 9 8 9 10 10 12 11 9 8 9 10 11 10 11 10 9 8 7 6 5 5 4 4 4 4 3 4 4 5 5 6 6 6 6 7 7 7 6 6 10 15
12 12 12 12 12 11 10 12 9 8 8 7 7 7 7 6 4 6 6 5 4 4 3 2 2 2 3 4 5 4 7 7 7 7 7 7 8 8 9 7 6 7 7 8 10 10 9 9 10 9 13 12 9 9 10 11 12 11 9 9 7 6 5 5 5 4 4 3 3 3 3 4 5 5 5 5 6 6 6 6 6 6 6 6 7
14 14 14 13 12 12 12 13 8 9 9 9 8 7 6 7 7 6 5 5 5 5 4 3 2 2 3 3 3 4 6 7 6 4 6 8 8 8 8 9 7 6 6 7 9 10 10 10 11 10 7 11 10 10 10 11 7 10 11 8 7 5 5 5 5 4 4 3 3 3 3 4 5 4 4 5 5 5 6 6 5 6 6 6 6
13 14 13 13 13 13 13 12 9 9 9 9 9 8 7 2 4 5 5 5 2 2 3 3 2 2 2 2 3 5 6 7 8 4 4 7 8 9 8 8 8 7 8 9 10 11 10 13 13 13 11 6 9 8 11 4 8 10 10 10 7 6 4 4 4 4 3 3 2 3 4 4 4 3 3 4 4 5 5 5 5 6 7 7 6
13 13 14 15 12 12 14 12 11 10 9 8 7 5 5 6 6 5 6 4 5 4 4 4 4 4 2 1 2 3 4 6 8 6 5 5 8 9 8 7 7 8 9 10 11 11 11 11 11 11 12 12 9 8 4 4 7 12 9 5 8 6 6 5 5 3 3 3 2 3 3 3 3 3 3 4 4 4 4 4 6 6 6 6 6
13 14 14 14 10 14 16 12 10 10 9 9 8 8 8 7 7 7 7 7 6 4 4 3 2 3 3 4 3 3 4 5 8 7 5 5 6 7 8 8 9 9 8 9 11 11 12 11 12 12 13 13 11 9 5 5 8 1 5 7 4 5 5 8 8 4 3 3 2 2 2 2 3 3 4 4 3 4 4 4 5 5 5 5 6
14 14 13 13 11 11 14 11 9 9 9 10 10 9 8 9 8 8 7 5 6 6 8 8 6 6 6 3 3 3 3 4 4 7 5 5 6 6 7 9 9 8 8 9 9 10 11 11 11 11 11 9 12 11 7 5 4 2 5 4 3 1 7 9 8 5 3 1 2 1 1 2 2 3 3 4 4 3 3 3 4 4 5 5 5
14 12 11 12 12 12 14 12 10 9 8 9 10 8 8 8 11 10 10 10 9 6 6 6 7 6 4 5 4 4 4 6 4 5 6 5 5 6 7 8 9 8 8 8 9 11 10 10 9 9 9 8 9 11 10 8 4 4 2 3 3 3 7 12 7 8 6 5 4 3 3 2 2 3 3 3 3 3 3 3 3 3 4 4 4
11 11 12 12 14 14 15 13 10 9 9 9 11 10 9 8 10 9 9 10 10 10 9 7 4 4 6 4 4 4 4 4 5 4 5 4 5 6 6 7 8 8 8 8 9 9 8 6 8 6 7 7 9 8 9 8 10 6 2 2 1 3 7 1 7 5 6 8 6 3 2 1 2 2 2 3 3 3 3 2 2 2 2 3 4
12 12 13 12 13 14 15 13 12 10 10 12 11 10 9 10 10 9 9 7 7 5 5 5 6 5 6 4 4 4 4 4 4 5 5 5 5 6 6 7 7 7 7 6 6 7 9 9 7 5 6 6 6 3 7 8 7 4 5 3 4 4 3 2 2 1 4 6 5 7 6 3 2 3 3 2 2 2 2 2 2 1 1 2 3
11 11 12 12 14 15 15 13 13 11 10 12 11 13 10 9 10 9 10 8 5 5 5 7 6 6 7 7 5 5 5 4 5 5 5 5 5 6 6 7 7 7 6 5 5 6 6 6 5 4 4 5 1 3 4 6 4 6 4 5 5 5 5 4 3 3 3 2 5 8 8 7 6 5 4 4 4 3 3 2 2 1 1 2 2
10 11 12 12 14 15 16 16 12 10 11 12 12 12 11 10 9 8 9 9 9 9 9 7 7 7 7 7 7 6 5 4 5 5 4 5 5 5 6 6 6 6 5 6 7 6 6 6 4 3 3 3 3 3 3 3 4 5 4 5 6 6 5 6 6 6 5 4 5 6 7 7 4 6 5 4 4 4 3 3 2 2 1 1 2
Wind_Direction
154 150 148 140 226 181 152 139 125 121 121 122 117 113 113 113 109 108 109 109 106 101 100 98 97 99 96 91 84 80 76 72 69 66 62 60 59 59 61 63 65 66 67 67 73 80 80 79 78 78 77 74 71 68 64 66 66 66 65 64 63 61 59 57 54 57 60 58 58 57 57 55 55 55 55 53 52 49 45 43 45 51 48 39 36
149 150 145 154 217 207 163 141 124 121 119 120 120 122 120 116 110 111 113 111 104 102 100 98 98 97 95 92 87 81 76 73 69 65 63 61 59 59 61 62 65 68 70 71 72 80 82 81 79 78 79 77 74 70 68 68 67 67 67 66 64 63 60 57 55 54 56 58 65 62 57 56 55 56 56 55 54 52 48 45 45 52 50 42 40
145 152 152 139 194 199 181 143 126 125 123 119 122 121 120 116 117 115 112 109 105 104 101 102 101 98 96 94 91 85 78 73 69 64 62 61 61 60 61 64 65 67 70 74 77 82 87 85 82 81 79 78 75 73 71 71 71 71 69 66 65 64 61 58 56 52 51 57 62 69 70 60 53 54 55 55 53 54 53 50 49 51 49 46 42
159 161 156 139 240 171 340 158 125 120 118 120 118 120 120 115 115 114 110 107 105 103 104 103 101 97 94 93 91 85 78 72 67 64 63 61 61 63 64 65 67 68 72 76 79 83 86 85 84 84 82 81 81 81 79 78 76 74 74 75 71 67 63 61 57 49 49 53 56 64 61 61 57 54 56 56 55 54 56 56 55 55 53 51 49
170 160 157 155 163 134 181 144 130 131 125 123 120 122 122 118 115 115 112 109 106 105 105 102 99 98 97 95 91 87 78 71 68 65 64 62 63 65 67 69 70 69 73 78 81 83 85 86 87 86 84 82 83 82 81 77 74 70 69 70 74 70 65 59 47 38 47 52 57 62 60 62 61 57 57 59 58 56 56 58 56 55 54 54 52
167 159 163 161 152 140 161 143 137 136 129 129 125 125 128 123 121 118 114 112 111 109 108 106 103 101 99 96 93 88 79 73 70 67 64 63 65 68 70 73 74 73 74 78 81 84 86 87 87 86 84 81 78 76 74 73 72 68 65 68 66 62 51 44 35 36 52 62 66 66 61 61 60 55 54 56 59 59 57 56 56 54 52 51 52
163 165 166 157 152 133 156 150 138 139 135 132 131 123 126 127 122 116 115 115 114 111 106 105 104 100 100 98 95 89 81 76 72 69 65 66 67 70 73 77 77 76 76 78 80 82 84 86 87 85 81 78 76 75 76 74 71 70 70 67 66 58 54 51 39 40 49 62 65 67 66 62 61 59 56 56 57 59 58 56 55 55 53 51 51
174 176 173 153 151 129 163 149 141 141 135 135 130 128 127 125 121 117 113 112 111 112 108 107 107 104 102 99 96 90 84 79 75 70 68 69 70 72 75 78 80 79 79 80 82 84 85 83 81 83 84 80 79 78 81 80 79 75 72 71 68 60 51 46 50 55 59 67 67 66 65 67 65 61 58 59 56 55 58 59 56 55 53 53 49
176 176 170 157 135 90 76 150 147 143 143 142 133 133 130 127 123 118 115 116 117 118 116 112 110 109 105 102 99 94 89 84 78 74 73 72 73 74 78 80 80 81 82 83 84 86 84 83 81 80 78 78 77 76 74 75 74 75 74 70 64 59 54 47 43 70 70 67 66 64 65 65 66 65 59 59 58 57 51 53 58 57 55 52 52
181 174 165 163 148 128 103 211 155 156 151 144 135 139 135 132 129 121 120 119 121 124 121 117 115 113 108 104 101 98 92 86 81 78 77 76 77 78 80 82 83 84 84 84 86 86 86 86 82 77 75 75 75 74 75 75 75 71 72 69 65 60 51 63 70 64 71 72 72 67 61 60 67 64 63 66 62 60 62 56 57 55 55 57 55
177 170 165 157 149 119 67 304 171 168 158 148 147 144 138 137 133 125 122 122 123 126 124 121 118 113 110 106 105 101 95 88 85 82 80 80 81 83 84 84 83 83 84 87 88 88 88 87 85 82 77 76 76 77 79 80 80 78 73 68 60 52 41 58 70 72 73 70 69 72 69 66 69 66 64 65 64 63 66 64 58 57 55 55 57
173 167 163 160 137 140 56 9 285 168 162 154 150 149 145 144 141 133 129 125 126 127 126 127 122 116 113 111 109 104 98 91 88 86 83 83 85 86 87 88 87 85 84 87 90 91 89 88 86 84 81 79 80 85 85 84 80 74 71 65 59 50 40 55 70 73 73 73 68 71 69 65 64 64 62 67 68 64 61 62 62 59 57 58 57
172 170 163 161 162 126 124 301 345 194 165 164 156 153 149 150 148 140 139 137 132 127 126 125 124 121 117 116 114 109 103 98 94 90 87 86 87 88 87 87 88 88 88 88 87 89 89 88 86 84 83 82 81 80 82 80 73 69 65 61 58 54 42 57 74 72 71 69 69 64 64 62 60 59 60 63 67 63 62 58 56 56 55 54 56
172 171 161 165 156 127 158 349 289 339 198 167 163 160 156 153 153 149 146 143 137 134 136 135 131 129 126 124 123 115 110 105 100 96 91 90 91 91 90 89 88 88 89 89 90 90 90 89 86 84 82 80 78 78 77 75 72 67 62 58 48 33 61 73 73 70 69 67 62 61 60 59 60 61 58 58 64 67 64 60 60 59 57 57 54
164 187 153 145 156 179 179 180 245 288 356 178 171 165 161 159 159 160 153 151 143 142 142 140 138 134 133 133 128 124 120 110 104 100 96 94 94 94 94 93 92 92 92 91 90 89 87 86 86 84 82 80 78 78 77 75 72 67 61 55 45 30 32 72 70 71 68 64 64 60 57 58 56 59 57 57 60 61 62 63 60 60 56 57 59
140 158 115 108 167 192 197 191 190 190 208 113 144 163 170 160 162 163 161 156 151 147 144 144 140 139 139 136 131 129 123 115 109 104 99 97 96 95 96 95 96 96 96 96 95 93 91 89 88 86 83 80 79 78 77 74 70 65 61 55 46 31 29 64 69 65 67 65 63 62 61 56 54 58 58 57 54 54 54 56 55 57 60 60 59
137 155 153 113 139 175 184 186 158 143 146 143 133 95 100 165 163 163 164 158 152 151 146 146 143 141 139 136 133 131 123 118 113 107 103 99 98 96 95 95 96 97 97 97 95 94 93 91 90 87 84 81 79 78 75 72 69 65 61 56 49 37 37 64 69 68 70 67 67 64 60 58 55 58 57 57 55 53 51 50 49 49 47 50 56
99 124 166 154 113 123 154 178 163 178 176 163 156 136 98 181 150 153 156 160 152 153 146 144 143 136 128 123 125 126 122 117 112 110 108 104 101 99 99 99 99 99 99 98 96 95 94 92 90 87 84 81 79 78 75 72 69 65 60 56 50 46 46 59 69 71 72 70 70 67 67 71 72 68 63 60 58 57 55 54 52 49 48 46 48
113 122 133 156 163 122 120 159 189 190 190 194 189 145 125 101 148 153 155 162 156 154 149 139 132 122 115 113 115 120 116 113 111 111 111 107 104 103 102 101 101 102 101 99 98 97 95 93 90 88 85 82 81 78 74 70 66 64 59 51 51 52 56 70 71 72 66 63 64 63 67 72 67 66 66 65 64 63 62 59 58 56 55 54 53
125 147 126 107 129 163 148 142 164 180 193 182 208 189 151 128 111 142 153 153 163 149 136 129 120 113 110 114 114 122 126 117 115 118 115 114 111 108 105 102 103 103 103 103 101 99 97 95 93 90 87 84 82 78 74 70 66 61 57 51 52 56 67 66 64 65 64 63 60 56 42 49 58 61 62 62 62 63 62 61 60 60 59 58 57
153 156 153 136 147 159 161 176 143 139 180 183 188 194 155 146 127 128 157 157 167 135 127 122 120 118 122 123 132 148 141 138 146 129 126 117 110 112 109 106 106 105 104 104 104 102 100 98 96 93 90 86 82 75 70 68 64 59 52 53 56 61 67 75 71 66 62 57 56 56 51 53 57 62 62 63 61 62 63 59 58 57 57 55 54
183 160 133 135 143 125 122 149 158 149 167 171 164 198 172 187 168 160 168 155 147 137 138 145 137 135 133 148 149 150 152 155 141 133 126 126 122 111 110 112 111 110 108 107 105 104 104 103 101 99 98 97 97 90 82 70 61 57 54 54 64 60 56 65 72 57 49 44 42 50 55 56 57 61 62 61 62 61 59 57 56 57 60 60 61
187 168 150 155 138 140 145 149 137 136 155 178 163 168 173 209 192 180 156 167 157 156 152 148 158 150 163 164 159 162 159 153 150 136 134 123 121 122 117 116 114 111 111 108 106 105 105 104 102 98 98 99 90 89 87 86 78 66 62 61 63 59 56 57 60 57 46 35 38 21 54 53 52 56 61 61 59 61 61 59 60 63 63 62 61
188 179 158 153 166 148 146 139 146 140 196 160 179 191 187 180 197 187 177 176 175 169 165 161 168 161 180 169 172 161 155 151 114 118 118 127 123 119 116 113 112 110 112 106 102 102 105 106 109 111 100 84 81 83 82 79 75 69 66 63 61 56 53 55 57 55 50 35 28 12 48 52 52 53 58 63 60 59 62 63 62 63 64 63 59
183 143 160 175 167 173 171 166 176 168 166 177 171 194 213 187 188 190 189 185 170 181 169 173 167 172 167 160 165 169 157 140 149 151 151 139 140 136 134 134 132 129 130 119 119 124 122 119 114 102 92 84 74 74 80 79 73 68 65 60 58 54 56 53 56 57 52 42 23 18 43 55 53 51 52 59 65 63 60 63 63 62 62 60 58
108 190 195 177 175 184 199 168 180 184 179 199 187 144 232 218 205 198 195 200 182 184 168 167 170 169 163 148 147 159 164 158 157 155 157 156 148 152 148 141 140 139 140 133 138 136 132 120 109 100 89 85 76 70 69 75 76 69 66 60 59 59 59 57 59 63 58 47 26 22 38 57 57 53 52 54 57 59 59 58 61 58 59 60 60
186 204 188 189 177 189 188 197 201 185 196 212 213 194 214 229 217 201 196 194 199 184 173 173 170 185 159 151 152 150 148 173 170 151 165 164 162 161 154 146 141 143 146 140 131 130 124 116 108 100 95 92 85 77 74 73 77 78 72 66 64 64 64 62 63 66 63 55 36 19 42 52 55 55 59 62 62 60 56 55 58 58 58 58 57
195 201 196 200 191 197 185 189 206 208 205 200 218 213 213 224 228 194 193 181 192 170 173 177 172 175 166 164 168 159 149 152 167 167 161 165 153 159 143 141 122 132 138 128 123 116 114 111 108 104 105 101 101 95 85 80 80 78 76 70 69 69 68 68 68 65 67 64 50 25 41 56 59 60 60 55 58 58 56 55 56 57 58 59 59
210 208 204 208 207 202 203 212 213 213 218 211 217 218 215 219 202 201 197 171 173 166 173 182 179 171 176 171 181 175 170 158 155 164 169 158 156 138 147 140 126 123 127 119 122 119 114 112 111 108 105 104 103 98 96 90 86 80 79 77 76 74 71 71 68 65 68 71 60 34 34 52 58 57 56 57 57 59 60 59 58 57 57 56 59
210 203 195 203 203 204 217 226 226 222 219 221 219 216 214 217 210 189 179 173 168 159 156 165 188 170 169 176 177 174 169 164 165 162 162 151 153 153 108 122 136 144 135 126 120 112 113 115 112 108 105 105 102 102 102 94 85 82 78 79 75 74 71 69 65 67 71 72 69 54 38 37 53 63 61 60 59 59 59 58 58 59 58 55 55
198 199 196 194 188 192 209 216 222 230 233 226 227 217 217 221 209 188 165 205 162 156 168 171 169 175 172 168 176 179 168 164 167 164 160 154 153 144 141 136 130 113 121 118 117 113 113 108 107 106 110 112 109 107 104 98 91 84 80 77 74 75 72 68 67 66 68 65 70 70 55 45 44 55 63 61 59 59 58 59 59 58 58 58 58
196 201 197 190 189 201 206 212 220 220 227 228 224 220 220 219 203 189 177 224 169 176 180 180 170 162 162 171 176 177 171 168 162 160 159 158 157 148 137 131 117 115 125 130 134 128 116 107 96 90 89 101 106 105 101 99 92 86 83 80 76 77 74 73 70 64 62 63 64 66 67 62 52 48 51 58 55 56 57 57 56 56 59 57 57
203 200 191 185 200 202 210 215 214 212 213 217 213 212 214 209 201 193 185 174 183 180 183 182 174 163 166 162 167 164 157 155 172 164 152 148 136 127 123 128 110 117 113 112 112 115 113 113 103 102 95 105 108 103 97 95 92 88 83 80 78 74 72 76 72 66 62 60 61 60 63 64 68 55 47 45 49 53 56 57 56 56 57 56 57
195 189 189 197 193 191 199 214 212 214 210 211 208 206 207 199 191 192 184 174 164 157 179 183 176 170 175 170 164 158 141 117 125 123 131 127 130 125 126 117 118 124 126 127 124 125 124 123 125 115 106 109 113 109 103 96 91 88 83 77 75 72 73 71 66 63 63 63 61 59 58 57 57 61 60 49 44 48 53 55 56 55 55 54 52
197 195 195 198 190 191 193 206 202 211 206 205 202 202 190 187 182 184 182 170 163 162 148 155 148 160 177 170 170 159 142 122 132 127 127 130 131 131 127 127 128 132 123 117 120 109 121 127 134 120 111 113 107 100 99 98 98 93 87 84 79 78 76 74 68 67 64 62 60 56 53 52 53 58 63 67 50 42 48 50 51 51 51 52 51
205 199 192 188 195 193 191 205 197 200 196 192 182 156 166 149 150 160 151 159 165 153 144 153 140 140 155 149 148 136 141 139 137 133 127 126 126 127 123 131 135 129 122 128 127 128 131 125 131 127 125 121 111 99 97 99 94 91 86 82 80 79 79 72 67 66 62 66 64 61 58 56 55 56 61 66 64 48 44 47 47 45 46 47 47
198 195 192 188 196 187 190 202 197 188 174 132 116 138 142 135 127 141 135 142 148 141 123 118 113 121 131 130 122 124 138 143 148 148 141 141 135 130 135 134 145 133 132 136 127 135 136 127 128 118 131 124 113 108 103 101 97 91 87 82 79 80 79 74 76 76 73 73 74 75 72 66 60 57 63 61 62 62 46 45 47 43 39 43 44
196 195 194 192 193 184 188 199 189 181 177 156 136 138 134 123 136 140 130 119 97 101 126 136 131 133 122 131 132 123 128 127 132 144 133 136 136 135 135 138 147 134 130 130 122 129 133 134 125 122 127 122 123 120 113 107 102 95 85 79 77 75 75 78 76 79 80 78 74 71 70 70 64 62 62 60 58 53 51 48 48 46 38 37 39
195 194 192 193 189 183 183 179 159 156 149 143 122 119 120 105 112 130 125 117 102 84 95 135 135 136 151 135 134 133 136 134 124 118 124 130 129 123 126 137 138 132 129 128 131 128 130 137 130 126 115 113 124 120 118 114 103 94 86 78 73 69 71 72 79 79 80 77 75 71 68 69 69 64 62 61 59 54 48 44 42 44 41 34 35
194 194 192 190 190 182 175 163 170 167 148 148 142 144 147 151 142 131 132 133 124 123 91 80 129 132 139 136 140 143 147 143 143 144 136 142 137 138 135 139 138 136 136 138 146 147 143 134 129 128 119 107 110 119 123 116 102 92 88 79 72 71 73 78 82 86 88 80 81 80 79 81 78 70 63 63 57 53 50 46 44 41 41 38 35
196 195 192 192 192 186 173 180 176 170 158 159 166 159 165 151 156 172 158 147 143 135 130 136 137 133 138 136 150 154 144 139 143 153 148 145 136 134 137 136 141 144 147 146 148 146 142 132 127 129 131 128 128 134 129 125 119 104 93 91 87 78 79 79 84 79 78 84 84 87 85 88 83 76 68 65 60 55 54 49 46 42 36 30 33
197 193 194 191 189 188 185 187 170 176 177 174 166 173 178 173 170 172 155 147 145 161 153 152 117 117 125 128 155 158 150 141 136 149 145 145 140 137 143 147 153 156 145 140 139 139 140 136 137 128 136 139 140 152 148 136 128 135 133 124 108 99 81 83 76 70 74 76 77 82 86 83 83 85 89 80 69 63 57 54 49 44 38 34 30
192 193 193 188 189 191 192 183 173 177 184 177 169 178 176 124 162 145 146 123 64 69 108 117 99 91 71 123 158 150 154 146 143 174 145 152 149 140 148 150 159 154 143 144 146 149 151 149 153 146 142 140 139 159 167 221 141 136 127 127 142 138 134 108 92 78 78 77 93 85 80 82 78 87 95 93 85 73 63 57 54 46 41 34 31
193 191 192 193 189 193 196 185 174 180 181 177 167 116 91 89 80 97 78 88 133 101 93 104 101 101 129 168 126 137 174 157 141 156 171 160 150 148 149 157 156 161 158 152 156 157 158 158 156 153 146 143 162 177 186 240 159 143 155 184 163 161 152 174 148 105 85 80 85 102 100 97 98 103 104 93 86 77 72 62 53 49 42 37 32
196 194 192 191 190 193 197 181 172 177 179 168 146 129 119 108 104 92 91 90 90 115 129 128 126 134 160 168 157 147 169 174 146 152 173 164 147 147 155 160 158 166 164 159 163 168 169 166 161 157 165 153 159 172 196 227 193 258 148 129 147 205 205 146 143 130 155 134 87 99 101 115 113 104 101 94 92 86 78 65 59 52 43 38 32
199 197 192 191 186 187 195 177 170 175 177 164 149 151 157 148 146 146 153 156 151 169 176 169 168 178 187 142 121 153 166 146 151 148 147 158 152 156 157 158 161 166 172 168 163 161 170 171 171 164 165 172 159 162 173 208 235 209 295 329 353 303 151 151 163 153 144 84 126 135 134 122 117 110 102 101 97 91 76 71 60 54 44 36 31
201 190 189 189 185 185 195 180 174 178 170 158 161 159 162 167 167 171 166 167 165 185 174 167 162 160 140 152 153 158 169 155 147 152 143 155 156 165 160 163 165 167 168 166 168 172 172 171 168 172 172 168 164 164 174 175 187 252 279 302 340 324 136 148 194 124 160 162 191 167 157 147 121 118 112 104 103 106 95 83 70 59 50 37 30
190 187 187 187 188 190 195 178 177 179 170 167 172 177 168 169 173 175 173 176 177 169 169 161 135 124 141 143 146 164 167 150 146 142 137 144 159 165 163 161 166 172 170 173 170 168 166 165 175 174 171 175 177 172 167 170 179 180 167 197 119 103 135 9 152 177 150 158 168 158 171 179 165 142 125 121 115 101 106 93 71 60 60 47 32
187 187 188 188 189 196 197 184 184 177 168 171 177 184 178 174 176 175 176 183 170 142 124 119 138 152 137 141 155 164 165 145 139 137 139 156 166 166 163 164 167 168 171 168 166 165 167 168 175 174 177 177 188 178 163 170 190 166 152 134 127 128 120 78 79 63 141 156 155 173 169 163 216 171 161 143 118 117 116 115 97 95 80 61 39
186 184 180 184 195 199 195 182 188 177 174 177 182 187 187 180 185 180 178 159 132 114 135 147 153 161 154 159 161 174 169 164 131 127 143 161 164 160 165 167 164 165 172 161 141 145 146 155 167 179 179 183 154 135 159 162 179 137 179 151 148 137 133 131 162 137 97 156 169 179 171 172 185 174 163 170 163 157 160 155 166 138 92 64 37
185 184 184 184 197 199 196 195 189 179 176 179 182 186 188 193 193 181 177 151 152 154 156 156 155 162 162 165 172 177 172 167 134 142 155 161 158 160 166 164 158 159 151 140 158 162 157 159 146 125 133 160 169 138 100 95 124 141 161 178 167 170 168 176 171 177 174 160 145 159 165 187 190 164 172 156 168 180 174 179 170 146 100 71 44